Cahokia, IL

2:19 PM CDT on March 27, 2017 (GMT -0500)
Saint Louis Downtown

Weather History for KCPS - November, 2013

Change the Weather History Date:

Saturday, November 9, 2013

  Actual Average Record
Temperature  
Mean Temperature 52 °F -  
Max Temperature 66 °F 65 °F 77 °F (1999)
Min Temperature 37 °F 44 °F 25 °F (2008)
Degree Days  
Heating Degree Days 12    
Growing Degree Days 2 (Base 50)    
Moisture  
Dew Point 36 °F    
Average Humidity 56    
Maximum Humidity 93    
Minimum Humidity 30    
Precipitation  
Precipitation 0.00 in - - ()
Sea Level Pressure  
Sea Level Pressure 30.13 in    
Wind  
Wind Speed 7 mph (SW)    
Max Wind Speed 13 mph    
Max Gust Speed 20 mph    
Visibility 10 miles    
Events      
Averages and records for this station are not official NWS values.
T = Trace of Precipitation, MM = Missing Value Source: NWS Daily Summary

Daily Weather History Graph

Daily Weather History Graph

Search for Another Location

Airport or City:

Trip Planner

Search our weather history database for the weather conditions in past years. The results will help you decide how hot, cold, wet, or windy it might be!

Date:

Astronomy

Nov. 09, 2013 Rise Set
Actual Time 6:36 AM CST 4:52 PM CST
Civil Twilight 6:08 AM CST 5:20 PM CST
Nautical Twilight 5:36 AM CST 5:51 PM CST
Astronomical Twilight 5:05 AM CST 6:23 PM CST
Moon 12:13 PM CST (11/9) 11:21 PM CST (11/9)
Length of Visible Light 11h 11m
Length of Day
10h 15m
Waxing Crescent, 44% of the Moon is Illuminated
Nov 9
Waxing Crescent
Nov 9
First Quarter
Nov 17
Full
Nov 25
Last Quarter
Dec 2
New

Hourly Weather History & Observations

Time (CST) Temp. Windchill Dew Point Humidity Pressure Visibility Wind Dir Wind Speed Gust Speed Precip Events Conditions
12:53 AM 43.0 °F 39.5 °F 33.1 °F 68% 30.10 in 10.0 mi SSE 5.8 mph - N/A   Clear
1:53 AM 42.1 °F 39.2 °F 33.1 °F 70% 30.11 in 10.0 mi SE 4.6 mph - N/A   Clear
2:53 AM 48.0 °F - 34.0 °F 58% 30.09 in 10.0 mi South 8.1 mph - N/A   Clear
3:53 AM 50.0 °F - 35.1 °F 57% 30.07 in 10.0 mi South 8.1 mph - N/A   Partly Cloudy
4:53 AM 50.0 °F - 35.1 °F 57% 30.07 in 10.0 mi SSW 8.1 mph - N/A   Clear
5:53 AM 48.9 °F - 35.1 °F 59% 30.09 in 10.0 mi SSW 6.9 mph - N/A   Clear
6:53 AM 48.9 °F - 35.1 °F 59% 30.09 in 10.0 mi SSW 9.2 mph - N/A   Clear
7:53 AM 50.0 °F - 35.1 °F 57% 30.12 in 10.0 mi SSW 12.7 mph 17.3 mph N/A   Clear
8:53 AM 53.1 °F - 36.0 °F 52% 30.13 in 10.0 mi SW 9.2 mph 19.6 mph N/A   Clear
9:53 AM 59.0 °F - 37.0 °F 44% 30.12 in 10.0 mi WSW 11.5 mph 18.4 mph N/A   Clear
10:53 AM 62.1 °F - 37.0 °F 39% 30.13 in 10.0 mi West 8.1 mph 18.4 mph N/A   Clear
11:53 AM 63.0 °F - 37.0 °F 38% 30.11 in 10.0 mi WSW 12.7 mph - N/A   Clear
12:53 PM 64.9 °F - 37.9 °F 37% 30.10 in 10.0 mi WSW 10.4 mph - N/A   Clear
1:53 PM 66.0 °F - 36.0 °F 33% 30.09 in 10.0 mi West 10.4 mph - N/A   Clear
2:53 PM 66.0 °F - 36.0 °F 33% 30.09 in 10.0 mi WSW 8.1 mph - N/A   Clear
3:53 PM 66.0 °F - 34.0 °F 30% 30.10 in 10.0 mi West 8.1 mph - N/A   Clear
4:53 PM 62.1 °F - 35.1 °F 37% 30.12 in 10.0 mi WSW 5.8 mph - N/A   Clear
5:53 PM 57.9 °F - 36.0 °F 44% 30.14 in 10.0 mi SW 3.5 mph - N/A   Clear
6:53 PM 54.0 °F - 37.0 °F 53% 30.17 in 10.0 mi Calm Calm - N/A   Clear
7:53 PM 46.0 °F - 37.0 °F 71% 30.18 in 10.0 mi Calm Calm - N/A   Clear
8:53 PM 42.1 °F - 37.0 °F 82% 30.20 in 10.0 mi Calm Calm - N/A   Clear
9:53 PM 41.0 °F - 36.0 °F 82% 30.21 in 10.0 mi Calm Calm - N/A   Clear
10:53 PM 39.9 °F - 37.0 °F 89% 30.23 in 10.0 mi Calm Calm - N/A   Clear
11:53 PM 37.0 °F - 35.1 °F 93% 30.24 in 10.0 mi Calm Calm - N/A   Clear